Change the Weather History Date:

Saturday, May 18, 2013

  Actual Average Record
Temperature  
Mean Temperature 79 °F -  
Max Temperature 87 °F 84 °F 93 °F (1951)
Min Temperature 71 °F 61 °F 46 °F (2011)
Cooling Degree Days 14    
Growing Degree Days 29 (Base 50)    
Moisture  
Dew Point 70 °F    
Average Humidity 79    
Maximum Humidity 94    
Minimum Humidity 57    
Precipitation  
Precipitation 0.00 in - - ()
Sea Level Pressure  
Sea Level Pressure 30.02 in    
Wind  
Wind Speed 7 mph (SSW)    
Max Wind Speed 12 mph    
Max Gust Speed 16 mph    
Visibility 8 miles    
Events      
Averages and records for this station are not official NWS values.
T = Trace of Precipitation, MM = Missing Value Source: NWS Daily Summary

Daily Weather History Graph

Daily Weather History Graph

Search for Another Location

Airport or City:

Trip Planner

Search our weather history database for the weather conditions in past years. The results will help you decide how hot, cold, wet, or windy it might be!

Date:

Astronomy

May. 18, 2013 Rise Set
Actual Time 6:04 AM CDT 7:52 PM CDT
Civil Twilight 5:37 AM CDT 8:19 PM CDT
Nautical Twilight 5:05 AM CDT 8:51 PM CDT
Astronomical Twilight 4:31 AM CDT 9:26 PM CDT
Moon 1:22 PM CDT (5/18) 1:29 AM CDT (5/18)
Length of Visible Light 14h 42m
Length of Day
13h 48m
First Quarter, 55% of the Moon is Illuminated
May 18
First Quarter
May 24
Full
May 31
Last Quarter
Jun 8
New
Jun 16
First Quarter

Hourly Weather History & Observations

Time (CDT) Temp. Heat Index Dew Point Humidity Pressure Visibility Wind Dir Wind Speed Gust Speed Precip Events Conditions
12:53 AM 73.0 °F - 69.1 °F 87% 30.00 in 9.0 mi South 8.1 mph - N/A   Mostly Cloudy
1:00 AM 73.4 °F - 69.8 °F 88% 30.01 in 9.0 mi South 8.1 mph - N/A   Overcast
1:38 AM 73.4 °F - 69.8 °F 88% 30.01 in 8.0 mi South 8.1 mph - N/A   Overcast
1:53 AM 72.0 °F - 70.0 °F 93% 29.99 in 7.0 mi South 6.9 mph - N/A   Overcast
2:53 AM 72.0 °F - 70.0 °F 93% 29.98 in 7.0 mi South 6.9 mph - N/A   Overcast
3:53 AM 72.0 °F - 70.0 °F 93% 29.98 in 6.0 mi South 9.2 mph - N/A   Overcast
4:28 AM 71.6 °F - 69.8 °F 94% 30.00 in 6.0 mi South 4.6 mph - N/A   Overcast
4:53 AM 72.0 °F - 70.0 °F 93% 29.99 in 6.0 mi South 3.5 mph - N/A   Overcast
5:00 AM 71.6 °F - 69.8 °F 94% 30.00 in 6.0 mi South 3.5 mph - N/A   Overcast
5:53 AM 72.0 °F - 70.0 °F 93% 30.00 in 6.0 mi South 6.9 mph - N/A   Overcast
6:34 AM 73.4 °F - 69.8 °F 88% 30.03 in 5.0 mi South 5.8 mph - N/A   Overcast
6:43 AM 73.4 °F - 69.8 °F 88% 30.03 in 5.0 mi South 4.6 mph - N/A   Overcast
6:53 AM 73.0 °F - 70.0 °F 90% 30.01 in 5.0 mi South 6.9 mph - N/A   Overcast
7:53 AM 73.9 °F - 71.1 °F 91% 30.05 in 5.0 mi SSW 4.6 mph - N/A   Overcast
8:18 AM 75.2 °F - 71.6 °F 89% 30.07 in 5.0 mi South 5.8 mph - N/A   Overcast
8:53 AM 75.9 °F - 71.1 °F 85% 30.06 in 8.0 mi SSW 4.6 mph - N/A   Overcast
9:53 AM 78.1 °F - 69.1 °F 74% 30.05 in 9.0 mi WSW 11.5 mph - N/A   Mostly Cloudy
10:27 AM 80.6 °F 83.9 °F 69.8 °F 70% 30.07 in 10.0 mi SSW 8.1 mph - N/A   Scattered Clouds
10:53 AM 81.0 °F 84.1 °F 69.1 °F 67% 30.05 in 10.0 mi SSW 10.4 mph - N/A   Partly Cloudy
11:06 AM 80.6 °F 83.9 °F 69.8 °F 70% 30.07 in 10.0 mi SW 9.2 mph - N/A   Mostly Cloudy
11:32 AM 82.4 °F 86.3 °F 69.8 °F 66% 30.07 in 10.0 mi SSW 10.4 mph - N/A   Scattered Clouds
11:45 AM 80.6 °F 83.9 °F 69.8 °F 70% 30.07 in 10.0 mi SSW 10.4 mph - N/A   Mostly Cloudy
11:53 AM 82.0 °F 85.5 °F 69.1 °F 65% 30.05 in 10.0 mi South 10.4 mph - N/A   Mostly Cloudy
12:20 PM 84.2 °F 88.4 °F 69.8 °F 62% 30.06 in 10.0 mi SSW 9.2 mph 16.1 mph N/A   Mostly Cloudy
12:53 PM 82.9 °F 87.0 °F 70.0 °F 65% 30.03 in 10.0 mi WSW 6.9 mph - N/A   Mostly Cloudy
2:53 PM 86.0 °F 90.7 °F 70.0 °F 59% 30.00 in 10.0 mi South 9.2 mph - N/A   Scattered Clouds
3:53 PM 86.0 °F 90.7 °F 70.0 °F 59% 29.99 in 10.0 mi SSW 6.9 mph - N/A   Mostly Cloudy
4:53 PM 87.1 °F 92.0 °F 70.0 °F 57% 29.99 in 10.0 mi SSW 6.9 mph - N/A   Partly Cloudy
5:53 PM 84.9 °F 88.2 °F 68.0 °F 57% 29.98 in 10.0 mi South 10.4 mph - N/A   Clear
6:53 PM 84.0 °F 88.4 °F 70.0 °F 63% 29.98 in 10.0 mi South 6.9 mph - N/A   Clear
7:53 PM 80.1 °F 83.6 °F 71.1 °F 74% 29.99 in 10.0 mi South 4.6 mph - N/A   Clear
8:53 PM 75.9 °F - 71.1 °F 85% 29.99 in 10.0 mi SSE 4.6 mph - N/A   Clear
9:53 PM 75.9 °F - 69.1 °F 79% 29.99 in 10.0 mi South 9.2 mph - N/A   Clear
11:53 PM 72.0 °F - 68.0 °F 87% 29.98 in 10.0 mi South 5.8 mph - N/A   Clear